Regional Weather Roundup
Issued by NWS

Home | Current Version | Previous Version | Text Only | Print | Product List | Glossary Off
Versions: 1 2 3 4 5 6 7 8 9 10 11 12 13 14 15 16 17 18 19 20 21 22 23 24 25 26 27 28 29 30 31 32 33 34 35 36 37 38 39 40 41 42 43 44 45 46 47 48 49 50

699
ASUS43 KTOP 221859
RWRKS

WEATHER ROUNDUP FOR KANSAS
NATIONAL WEATHER SERVICE GOODLAND KS
100 PM CST SUN JAN 22 2017

NOTE:  "FAIR" INDICATES FEW OR NO CLOUDS BELOW 12,000 FEET WITH NO
SIGNIFICANT WEATHER AND/OR OBSTRUCTIONS TO VISIBILITY.

KSZ001>006-013>018-027>032-041>047-222000-
NORTHWEST KANSAS

CITY           SKY/WX    TMP DP  RH WIND       PRES   REMARKS
GOODLAND       SUNNY     45  27  49 N17       29.89F
HAYS           SUNNY     50  26  39 N15       29.85F
HILL CITY      SUNNY     49  27  42 N15G23    29.87F
RUSSELL        SUNNY     50  26  39 NW20G25   29.83F
$$

KSZ061>065-074>080-084>089-222000-
SOUTHWEST KANSAS

CITY           SKY/WX    TMP DP  RH WIND       PRES   REMARKS
DODGE CITY     SUNNY     49  33  54 N16G25    29.87F
ELKHART          N/A     47  21  35 NW20        N/A
GARDEN CITY    SUNNY     49  30  48 N20       29.88F
GREAT BEND     SUNNY     50  31  48 N16       29.83F
LIBERAL          N/A     50  37  62 N20G26    29.90F
$$

KSZ066>073-081>083-090>101-222000-
SOUTHEAST KANSAS

CITY           SKY/WX    TMP DP  RH WIND       PRES   REMARKS
CHANUTE        MOSUNNY   48  41  76 N17       29.67F
COFFEYVILLE    CLOUDY    50  42  74 N20G26    29.66S
HUTCHINSON     SUNNY     51  27  39 N22G30    29.79F
MEDICINE LODGE   N/A     51  30  44 N22G31    29.80S
NEWTON         SUNNY     48  33  56 N21       29.77S
PARSONS        CLOUDY    49  42  77 N15G26    29.67S
WICHITA INTL   MOSUNNY   51  32  48 N22       29.77S
WICHITA JABRA  SUNNY     50  35  56 NW22      29.75F
WINFIELD       SUNNY     53  36  52 NW23      29.75S
$$

KSZ007>012-019>026-033>040-048>060-102>105-222000-
NORTHEAST KANSAS

CITY           SKY/WX    TMP DP  RH WIND       PRES   REMARKS
CONCORDIA      SUNNY     43  32  65 N16G28    29.81S
EMPORIA        SUNNY     50  32  50 N16G26    29.72S
LAWRENCE       CLOUDY    35  32  88 NW17      29.75S FOG     WCI  25
MANHATTAN      MOSUNNY   43  31  62 N12G20    29.79S
OLATHE IND     PTSUNNY   38  34  85 N22       29.71S WCI  27
OLATHE EXE     CLOUDY    39  35  86 N14       29.69S WCI  31
SALINA         SUNNY     48  30  49 NW17G25   29.80F
TOPEKA BILLARD CLOUDY    36  31  82 NW15G23   29.77S WCI  27
TOPEKA FORBES  CLOUDY    37  31  78 N18       29.75S WCI  27
$$




USA.gov is the U.S. government's official web portal to all federal, state and local government web resources and services.